Weather History for FBFT - December, 2012

Change the Weather History Date:

Monday, December 3, 2012

  Actual Average Record
Temperature  
Mean Temperature 78 °F -  
Max Temperature 91 °F 85 °F 96 °F (2002)
Min Temperature 66 °F 65 °F 51 °F (2014)
Cooling Degree Days 14    
Growing Degree Days 28 (Base 50)    
Moisture  
Dew Point 60 °F    
Average Humidity 67    
Maximum Humidity 94    
Minimum Humidity 34    
Precipitation  
Precipitation 0.00 in - - ()
Sea Level Pressure  
Sea Level Pressure 30.01 in    
Wind  
Wind Speed 6 mph ()    
Max Wind Speed 22 mph    
Max Gust Speed 18 mph    
Visibility 6.2 miles    
Events Rain , Thunderstorm    
Averages and records for this station are not official NWS values.
T = Trace of Precipitation, MM = Missing Value Source: Averaged Metar Reports

Daily Weather History Graph

Daily Weather History Graph

Search for Another Location

Airport or City:

Trip Planner

Search our weather history database for the weather conditions in past years. The results will help you decide how hot, cold, wet, or windy it might be!

Date:

Astronomy

Dec. 03, 2012 Rise Set
Actual Time 5:19 AM CAT 6:40 PM CAT
Civil Twilight 4:55 AM CAT 7:04 PM CAT
Nautical Twilight 4:26 AM CAT 7:34 PM CAT
Astronomical Twilight 3:55 AM CAT 8:04 PM CAT
Moon 10:20 PM CAT (12/3) 9:10 AM CAT (12/3)
Length of Visible Light 14h 09m
Length of Day
13h 20m
Waning Gibbous, 80% of the Moon is Illuminated
Dec 3
Waning Gibbous
Dec 6
Last Quarter
Dec 13
New
Dec 20
First Quarter
Dec 28
Full

Hourly Weather History & Observations

Time (CAT) Temp. Heat Index Dew Point Humidity Pressure Visibility Wind Dir Wind Speed Gust Speed Precip Events Conditions
12:00 AM 71.6 °F - 59.0 °F 64% 30.06 in - East 8.1 mph - N/A   Clear
1:00 AM 69.8 °F - 59.0 °F 68% 30.04 in - East 6.9 mph - N/A   Clear
2:00 AM 70 °F - 60 °F 62%  in 6 mi East 5.8 mph - -   Partly Cloudy
2:00 AM 69.8 °F - 59.0 °F 68% 30.04 in - East 5.8 mph - N/A   Clear
3:00 AM 69.8 °F - 59.0 °F 68% 30.01 in - East 4.6 mph - N/A   Unknown
4:00 AM 69.8 °F - 59.0 °F 68% 30.01 in - ENE 6.9 mph - N/A   Clear
5:00 AM 69.8 °F - 55.4 °F 60% 30.01 in - ESE 4.6 mph - N/A   Clear
6:00 AM 66.2 °F - 57.2 °F 73% 30.04 in - East 5.8 mph 18.4 mph N/A   Clear
7:00 AM 69.8 °F - 57.2 °F 64% 30.04 in - ESE 5.8 mph - N/A   Clear
8:00 AM 75.2 °F - 57.2 °F 53% 30.04 in - East 3.5 mph - N/A   Clear
9:00 AM 77.0 °F - 59.0 °F 54% 30.04 in - SSE 3.5 mph - N/A   Clear
10:00 AM 78.8 °F - 60.8 °F 54% 30.04 in - Variable 2.3 mph - N/A   Clear
11:00 AM 84.2 °F 83.5 °F 57.2 °F 40% 30.01 in 6.2 mi Variable 2.3 mph - N/A   Scattered Clouds
12:00 PM 86.0 °F 85.4 °F 59.0 °F 40% 30.01 in 6.2 mi WNW 4.6 mph 18.4 mph N/A   Scattered Clouds
1:00 PM 91.4 °F 90.7 °F 59.0 °F 34% 29.95 in 6.2 mi Variable 6.9 mph - N/A   Partly Cloudy
2:00 PM 82.4 °F 82.9 °F 60.8 °F 48% 29.98 in 6.2 mi WSW 21.9 mph - N/A Rain , Thunderstorm Thunderstorms and Rain
3:00 PM 77.0 °F - 50.0 °F 39% 29.95 in 6.2 mi WSW 4.6 mph - N/A Thunderstorm Thunderstorm
4:00 PM 68.0 °F - 62.6 °F 83% 29.98 in 6.2 mi SW 18.4 mph - N/A Rain , Thunderstorm Thunderstorms and Rain
5:00 PM 68.0 °F - 62.6 °F 83% 29.98 in 6.2 mi SE 9.2 mph - N/A Rain , Thunderstorm Thunderstorms and Rain
6:00 PM 68.0 °F - 62.6 °F 83% 29.98 in 6.2 mi NNW 9.2 mph - N/A Thunderstorm Thunderstorm
7:00 PM 68.0 °F - 62.6 °F 83% 29.98 in 6.2 mi North 3.5 mph - N/A Thunderstorm Thunderstorm
8:00 PM 68.0 °F - 66.2 °F 94% 29.98 in 6.2 mi SSE 5.8 mph - N/A   Mostly Cloudy
9:00 PM 68.0 °F - 66.2 °F 94% 29.98 in 6.2 mi NE 5.8 mph - N/A   Mostly Cloudy
10:00 PM 68.0 °F - 66.2 °F 94% 30.01 in 6.2 mi NNE 3.5 mph - N/A   Mostly Cloudy
11:00 PM 68.0 °F - 66.2 °F 94% 30.01 in 6.2 mi NNE 3.5 mph - N/A   Mostly Cloudy